Year,Month,Day,Hour,Minute,Value (Times are PST for windgust in km/hr)
2006,01,30,00,00,19.30
2006,01,30,00,01,14.50
2006,01,30,00,02,16.10
2006,01,30,00,03,20.90
2006,01,30,00,04,20.90
2006,01,30,00,05,20.90
2006,01,30,00,06,17.70
2006,01,30,00,07,14.50
2006,01,30,00,08,24.20
2006,01,30,00,09,24.20
2006,01,30,00,10,24.20
2006,01,30,00,11,24.20
2006,01,30,00,12,24.20
2006,01,30,00,13,20.90
2006,01,30,00,14,22.50
2006,01,30,00,15,22.50
2006,01,30,00,16,24.20
2006,01,30,00,17,19.30
2006,01,30,00,18,20.90
2006,01,30,00,19,16.10
2006,01,30,00,20,17.70
2006,01,30,00,21,22.50
2006,01,30,00,22,24.20
2006,01,30,00,23,20.90
2006,01,30,00,24,19.30
2006,01,30,00,25,22.50
2006,01,30,00,26,17.70
2006,01,30,00,27,12.90
2006,01,30,00,28,9.60
2006,01,30,00,29,11.30
2006,01,30,00,30,16.10
2006,01,30,00,31,9.60
2006,01,30,00,32,16.10
2006,01,30,00,33,11.30
2006,01,30,00,34,8.10
2006,01,30,00,35,11.30
2006,01,30,00,36,11.30
2006,01,30,00,37,11.30
2006,01,30,00,38,16.10
2006,01,30,00,39,16.10
2006,01,30,00,40,11.30
2006,01,30,00,41,11.30
2006,01,30,00,42,14.50
2006,01,30,00,43,9.60
2006,01,30,00,44,11.30
2006,01,30,00,45,14.50
2006,01,30,00,46,14.50
2006,01,30,00,47,9.60
2006,01,30,00,48,9.60
2006,01,30,00,49,11.30
2006,01,30,00,50,11.30
2006,01,30,00,51,9.60
2006,01,30,00,52,11.30
2006,01,30,00,53,11.30
2006,01,30,00,54,11.30
2006,01,30,00,55,16.10
2006,01,30,00,56,14.50
2006,01,30,00,57,11.30
2006,01,30,00,58,12.90
2006,01,30,00,59,14.50
2006,01,30,01,00,12.90
2006,01,30,01,01,16.10
2006,01,30,01,02,14.50
2006,01,30,01,03,12.90
2006,01,30,01,04,11.30
2006,01,30,01,05,12.90
2006,01,30,01,06,11.30
2006,01,30,01,07,14.50
2006,01,30,01,08,11.30
2006,01,30,01,09,16.10
2006,01,30,01,10,14.50
2006,01,30,01,11,14.50
2006,01,30,01,12,11.30
2006,01,30,01,13,9.60
2006,01,30,01,14,11.30
2006,01,30,01,15,16.10
2006,01,30,01,16,16.10
2006,01,30,01,17,16.10
2006,01,30,01,18,16.10
2006,01,30,01,19,16.10
2006,01,30,01,20,16.10
2006,01,30,01,21,14.50
2006,01,30,01,22,11.30
2006,01,30,01,23,17.70
2006,01,30,01,24,17.70
2006,01,30,01,25,16.10
2006,01,30,01,26,16.10
2006,01,30,01,27,14.50
2006,01,30,01,28,16.10
2006,01,30,01,29,17.70
2006,01,30,01,30,16.10
2006,01,30,01,31,9.60
2006,01,30,01,32,11.30
2006,01,30,01,33,20.90
2006,01,30,01,34,19.30
2006,01,30,01,35,20.90
2006,01,30,01,36,20.90
2006,01,30,01,37,22.50
2006,01,30,01,38,19.30
2006,01,30,01,39,20.90
2006,01,30,01,40,19.30
2006,01,30,01,41,14.50
2006,01,30,01,42,19.30
2006,01,30,01,43,20.90
2006,01,30,01,44,25.70
2006,01,30,01,45,19.30
2006,01,30,01,46,20.90
2006,01,30,01,47,20.90
2006,01,30,01,48,25.70
2006,01,30,01,49,22.50
2006,01,30,01,50,20.90
2006,01,30,01,51,22.50
2006,01,30,01,52,22.50
2006,01,30,01,53,20.90
2006,01,30,01,54,17.70
2006,01,30,01,55,20.90
2006,01,30,01,56,22.50
2006,01,30,01,57,24.20
2006,01,30,01,58,16.10
2006,01,30,01,59,17.70
2006,01,30,02,00,27.40
2006,01,30,02,01,24.20
2006,01,30,02,02,19.30
2006,01,30,02,03,17.70
2006,01,30,02,04,19.30
2006,01,30,02,05,24.20
2006,01,30,02,06,17.70
2006,01,30,02,07,24.20
2006,01,30,02,08,20.90
2006,01,30,02,09,17.70
2006,01,30,02,10,16.10
2006,01,30,02,11,16.10
2006,01,30,02,12,17.70
2006,01,30,02,13,22.50
2006,01,30,02,14,22.50
2006,01,30,02,15,19.30
2006,01,30,02,16,17.70
2006,01,30,02,17,19.30
2006,01,30,02,18,16.10
2006,01,30,02,19,16.10
2006,01,30,02,20,17.70
2006,01,30,02,21,11.30
2006,01,30,02,22,17.70
2006,01,30,02,23,17.70
2006,01,30,02,24,17.70
2006,01,30,02,25,17.70
2006,01,30,02,26,17.70
2006,01,30,02,27,19.30
2006,01,30,02,28,20.90
2006,01,30,02,29,19.30
2006,01,30,02,30,20.90
2006,01,30,02,31,20.90
2006,01,30,02,32,17.70
2006,01,30,02,33,19.30
2006,01,30,02,34,17.70
2006,01,30,02,35,17.70
2006,01,30,02,36,16.10
2006,01,30,02,37,20.90
2006,01,30,02,38,17.70
2006,01,30,02,39,19.30
2006,01,30,02,40,16.10
2006,01,30,02,41,16.10
2006,01,30,02,42,17.70
2006,01,30,02,43,19.30
2006,01,30,02,44,17.70
2006,01,30,02,45,19.30
2006,01,30,02,46,20.90
2006,01,30,02,47,16.10
2006,01,30,02,48,16.10
2006,01,30,02,49,16.10
2006,01,30,02,50,17.70
2006,01,30,02,51,17.70
2006,01,30,02,52,20.90
2006,01,30,02,53,17.70
2006,01,30,02,54,19.30
2006,01,30,02,55,17.70
2006,01,30,02,56,20.90
2006,01,30,02,57,17.70
2006,01,30,02,58,19.30
2006,01,30,02,59,17.70
2006,01,30,03,00,16.10
2006,01,30,03,01,19.30
2006,01,30,03,02,22.50
2006,01,30,03,03,22.50
2006,01,30,03,04,20.90
2006,01,30,03,05,20.90
2006,01,30,03,06,20.90
2006,01,30,03,07,19.30
2006,01,30,03,08,20.90
2006,01,30,03,09,17.70
2006,01,30,03,10,22.50
2006,01,30,03,11,20.90
2006,01,30,03,12,19.30
2006,01,30,03,13,22.50
2006,01,30,03,14,25.70
2006,01,30,03,15,24.20
2006,01,30,03,16,17.70
2006,01,30,03,17,22.50
2006,01,30,03,18,19.30
2006,01,30,03,19,22.50
2006,01,30,03,20,24.20
2006,01,30,03,21,17.70
2006,01,30,03,22,19.30
2006,01,30,03,23,20.90
2006,01,30,03,24,16.10
2006,01,30,03,25,17.70
2006,01,30,03,26,20.90
2006,01,30,03,27,14.50
2006,01,30,03,28,12.90
2006,01,30,03,29,11.30
2006,01,30,03,30,11.30
2006,01,30,03,31,14.50
2006,01,30,03,32,12.90
2006,01,30,03,33,16.10
2006,01,30,03,34,16.10
2006,01,30,03,35,17.70
2006,01,30,03,36,17.70
2006,01,30,03,37,20.90
2006,01,30,03,38,16.10
2006,01,30,03,39,11.30
2006,01,30,03,40,14.50
2006,01,30,03,41,17.70
2006,01,30,03,42,14.50
2006,01,30,03,43,9.60
2006,01,30,03,44,12.90
2006,01,30,03,45,17.70
2006,01,30,03,46,14.50
2006,01,30,03,47,11.30
2006,01,30,03,48,9.60
2006,01,30,03,49,11.30
2006,01,30,03,50,8.10
2006,01,30,03,51,9.60
2006,01,30,03,52,8.10
2006,01,30,03,53,8.10
2006,01,30,03,54,9.60
2006,01,30,03,55,9.60
2006,01,30,03,56,14.50
2006,01,30,03,57,16.10
2006,01,30,03,58,19.30
2006,01,30,03,59,12.90
2006,01,30,04,00,16.10
2006,01,30,04,01,14.50
2006,01,30,04,02,16.10
2006,01,30,04,03,17.70
2006,01,30,04,04,17.70
2006,01,30,04,05,17.70
2006,01,30,04,06,16.10
2006,01,30,04,07,17.70
2006,01,30,04,08,17.70
2006,01,30,04,09,17.70
2006,01,30,04,10,19.30
2006,01,30,04,11,20.90
2006,01,30,04,12,12.90
2006,01,30,04,13,19.30
2006,01,30,04,14,19.30
2006,01,30,04,15,22.50
2006,01,30,04,16,25.70
2006,01,30,04,17,20.90
2006,01,30,04,18,22.50
2006,01,30,04,19,22.50
2006,01,30,04,20,22.50
2006,01,30,04,21,22.50
2006,01,30,04,22,19.30
2006,01,30,04,23,17.70
2006,01,30,04,24,22.50
2006,01,30,04,25,17.70
2006,01,30,04,26,17.70
2006,01,30,04,27,27.40
2006,01,30,04,28,20.90
2006,01,30,04,29,22.50
2006,01,30,04,30,24.20
2006,01,30,04,31,20.90
2006,01,30,04,32,17.70
2006,01,30,04,33,14.50
2006,01,30,04,34,16.10
2006,01,30,04,35,17.70
2006,01,30,04,36,14.50
2006,01,30,04,37,12.90
2006,01,30,04,38,16.10
2006,01,30,04,39,17.70
2006,01,30,04,40,17.70
2006,01,30,04,41,17.70
2006,01,30,04,42,16.10
2006,01,30,04,43,12.90
2006,01,30,04,44,12.90
2006,01,30,04,45,16.10
2006,01,30,04,46,16.10
2006,01,30,04,47,11.30
2006,01,30,04,48,17.70
2006,01,30,04,49,14.50
2006,01,30,04,50,14.50
2006,01,30,04,51,11.30
2006,01,30,04,52,16.10
2006,01,30,04,53,24.20
2006,01,30,04,54,19.30
2006,01,30,04,55,19.30
2006,01,30,04,56,16.10
2006,01,30,04,57,17.70
2006,01,30,04,58,17.70
2006,01,30,04,59,14.50
2006,01,30,05,00,11.30
2006,01,30,05,01,20.90
2006,01,30,05,02,19.30
2006,01,30,05,03,16.10
2006,01,30,05,04,16.10
2006,01,30,05,05,12.90
2006,01,30,05,06,11.30
2006,01,30,05,07,9.60
2006,01,30,05,08,12.90
2006,01,30,05,09,9.60
2006,01,30,05,10,9.60
2006,01,30,05,11,9.60
2006,01,30,05,12,17.70
2006,01,30,05,13,12.90
2006,01,30,05,14,20.90
2006,01,30,05,15,17.70
2006,01,30,05,16,16.10
2006,01,30,05,17,16.10
2006,01,30,05,18,19.30
2006,01,30,05,19,20.90
2006,01,30,05,20,19.30
2006,01,30,05,21,19.30
2006,01,30,05,22,16.10
2006,01,30,05,23,19.30
2006,01,30,05,24,22.50
2006,01,30,05,25,17.70
2006,01,30,05,26,19.30
2006,01,30,05,27,20.90
2006,01,30,05,28,14.50
2006,01,30,05,29,17.70
2006,01,30,05,30,19.30
2006,01,30,05,31,19.30
2006,01,30,05,32,19.30
2006,01,30,05,33,22.50
2006,01,30,05,34,22.50
2006,01,30,05,35,22.50
2006,01,30,05,36,22.50
2006,01,30,05,37,17.70
2006,01,30,05,38,19.30
2006,01,30,05,39,19.30
2006,01,30,05,40,24.20
2006,01,30,05,41,24.20
2006,01,30,05,42,20.90
2006,01,30,05,43,20.90
2006,01,30,05,44,20.90
2006,01,30,05,45,17.70
2006,01,30,05,46,20.90
2006,01,30,05,47,19.30
2006,01,30,05,48,19.30
2006,01,30,05,49,19.30
2006,01,30,05,50,25.70
2006,01,30,05,51,22.50
2006,01,30,05,52,22.50
2006,01,30,05,53,24.20
2006,01,30,05,54,20.90
2006,01,30,05,55,27.40
2006,01,30,05,56,27.40
2006,01,30,05,57,24.20
2006,01,30,05,58,20.90
2006,01,30,05,59,22.50
2006,01,30,06,00,20.90
2006,01,30,06,01,22.50
2006,01,30,06,02,19.30
2006,01,30,06,03,20.90
2006,01,30,06,04,20.90
2006,01,30,06,05,29.00
2006,01,30,06,06,25.70
2006,01,30,06,07,24.20
2006,01,30,06,08,20.90
2006,01,30,06,09,19.30
2006,01,30,06,10,19.30
2006,01,30,06,11,20.90
2006,01,30,06,12,20.90
2006,01,30,06,13,22.50
2006,01,30,06,14,22.50
2006,01,30,06,15,19.30
2006,01,30,06,16,22.50
2006,01,30,06,17,19.30
2006,01,30,06,18,25.70
2006,01,30,06,19,24.20
2006,01,30,06,20,22.50
2006,01,30,06,21,20.90
2006,01,30,06,22,24.20
2006,01,30,06,23,20.90
2006,01,30,06,24,19.30
2006,01,30,06,25,19.30
2006,01,30,06,26,20.90
2006,01,30,06,27,17.70
2006,01,30,06,28,22.50
2006,01,30,06,29,19.30
2006,01,30,06,30,19.30
2006,01,30,06,31,19.30
2006,01,30,06,32,16.10
2006,01,30,06,33,16.10
2006,01,30,06,34,14.50
2006,01,30,06,35,16.10
2006,01,30,06,36,16.10
2006,01,30,06,37,14.50
2006,01,30,06,38,14.50
2006,01,30,06,39,17.70
2006,01,30,06,40,14.50
2006,01,30,06,41,11.30
2006,01,30,06,42,19.30
2006,01,30,06,43,27.40
2006,01,30,06,44,20.90
2006,01,30,06,45,19.30
2006,01,30,06,46,22.50
2006,01,30,06,47,19.30
2006,01,30,06,48,19.30
2006,01,30,06,49,19.30
2006,01,30,06,50,20.90
2006,01,30,06,51,17.70
2006,01,30,06,52,25.70
2006,01,30,06,53,22.50
2006,01,30,06,54,24.20
2006,01,30,06,55,25.70
2006,01,30,06,56,22.50
2006,01,30,06,57,19.30
2006,01,30,06,58,16.10
2006,01,30,06,59,19.30
2006,01,30,07,00,22.50
2006,01,30,07,01,20.90
2006,01,30,07,02,20.90
2006,01,30,07,03,22.50
2006,01,30,07,04,22.50
2006,01,30,07,05,22.50
2006,01,30,07,06,19.30
2006,01,30,07,07,24.20
2006,01,30,07,08,17.70
2006,01,30,07,09,20.90
2006,01,30,07,10,19.30
2006,01,30,07,11,27.40
2006,01,30,07,12,22.50
2006,01,30,07,13,20.90
2006,01,30,07,14,14.50
2006,01,30,07,15,17.70
2006,01,30,07,16,14.50
2006,01,30,07,17,16.10
2006,01,30,07,18,20.90
2006,01,30,07,19,19.30
2006,01,30,07,20,17.70
2006,01,30,07,21,16.10
2006,01,30,07,22,22.50
2006,01,30,07,23,25.70
2006,01,30,07,24,24.20
2006,01,30,07,25,30.60
2006,01,30,07,26,30.60
2006,01,30,07,27,29.00
2006,01,30,07,28,25.70
2006,01,30,07,29,32.20
2006,01,30,07,30,35.40
2006,01,30,07,31,37.00
2006,01,30,07,32,29.00
2006,01,30,07,33,33.80
2006,01,30,07,34,32.20
2006,01,30,07,35,30.60
2006,01,30,07,36,27.40
2006,01,30,07,37,25.70
2006,01,30,07,38,27.40
2006,01,30,07,39,25.70
2006,01,30,07,40,27.40
2006,01,30,07,41,29.00
2006,01,30,07,42,27.40
2006,01,30,07,43,35.40
2006,01,30,07,44,32.20
2006,01,30,07,45,30.60
2006,01,30,07,46,30.60
2006,01,30,07,47,30.60
2006,01,30,07,48,29.00
2006,01,30,07,49,35.40
2006,01,30,07,50,32.20
2006,01,30,07,51,29.00
2006,01,30,07,52,30.60
2006,01,30,07,53,27.40
2006,01,30,07,54,22.50
2006,01,30,07,55,25.70
2006,01,30,07,56,24.20
2006,01,30,07,57,29.00
2006,01,30,07,58,24.20
2006,01,30,07,59,24.20
2006,01,30,08,00,25.70
2006,01,30,08,01,24.20
2006,01,30,08,02,32.20
2006,01,30,08,03,20.90
2006,01,30,08,04,29.00
2006,01,30,08,05,22.50
2006,01,30,08,06,22.50
2006,01,30,08,07,16.10
2006,01,30,08,08,14.50
2006,01,30,08,09,19.30
2006,01,30,08,10,24.20
2006,01,30,08,11,17.70
2006,01,30,08,12,22.50
2006,01,30,08,13,24.20
2006,01,30,08,14,24.20
2006,01,30,08,15,22.50
2006,01,30,08,16,22.50
2006,01,30,08,17,22.50
2006,01,30,08,18,22.50
2006,01,30,08,19,25.70
2006,01,30,08,20,20.90
2006,01,30,08,21,20.90
2006,01,30,08,22,24.20
2006,01,30,08,23,24.20
2006,01,30,08,24,25.70
2006,01,30,08,25,20.90
2006,01,30,08,26,20.90
2006,01,30,08,27,17.70
2006,01,30,08,28,11.30
2006,01,30,08,29,17.70
2006,01,30,08,30,17.70
2006,01,30,08,31,16.10
2006,01,30,08,32,16.10
2006,01,30,08,33,14.50
2006,01,30,08,34,20.90
2006,01,30,08,35,19.30
2006,01,30,08,36,17.70
2006,01,30,08,37,16.10
2006,01,30,08,38,16.10
2006,01,30,08,39,9.60
2006,01,30,08,40,14.50
2006,01,30,08,41,20.90
2006,01,30,08,42,20.90
2006,01,30,08,43,12.90
2006,01,30,08,44,14.50
2006,01,30,08,45,17.70
2006,01,30,08,46,14.50
2006,01,30,08,47,20.90
2006,01,30,08,48,22.50
2006,01,30,08,49,20.90
2006,01,30,08,50,16.10
2006,01,30,08,51,16.10
2006,01,30,08,52,11.30
2006,01,30,08,53,9.60
2006,01,30,08,54,17.70
2006,01,30,08,55,14.50
2006,01,30,08,56,11.30
2006,01,30,08,57,14.50
2006,01,30,08,58,11.30
2006,01,30,08,59,14.50
2006,01,30,09,00,16.10
2006,01,30,09,01,17.70
2006,01,30,09,02,19.30
2006,01,30,09,03,17.70
2006,01,30,09,04,17.70
2006,01,30,09,05,16.10
2006,01,30,09,06,20.90
2006,01,30,09,07,17.70
2006,01,30,09,08,20.90
2006,01,30,09,09,20.90
2006,01,30,09,10,19.30
2006,01,30,09,11,19.30
2006,01,30,09,12,19.30
2006,01,30,09,13,20.90
2006,01,30,09,14,25.70
2006,01,30,09,15,24.20
2006,01,30,09,16,27.40
2006,01,30,09,17,30.60
2006,01,30,09,18,27.40
2006,01,30,09,19,30.60
2006,01,30,09,20,19.30
2006,01,30,09,21,27.40
2006,01,30,09,22,24.20
2006,01,30,09,23,20.90
2006,01,30,09,24,22.50
2006,01,30,09,25,20.90
2006,01,30,09,26,25.70
2006,01,30,09,27,27.40
2006,01,30,09,28,25.70
2006,01,30,09,29,24.20
2006,01,30,09,30,17.70
2006,01,30,09,31,17.70
2006,01,30,09,32,19.30
2006,01,30,09,33,17.70
2006,01,30,09,34,16.10
2006,01,30,09,35,19.30
2006,01,30,09,36,20.90
2006,01,30,09,37,24.20
2006,01,30,09,38,16.10
2006,01,30,09,39,16.10
2006,01,30,09,40,20.90
2006,01,30,09,41,19.30
2006,01,30,09,42,17.70
2006,01,30,09,43,20.90
2006,01,30,09,44,24.20
2006,01,30,09,45,27.40
2006,01,30,09,46,20.90
2006,01,30,09,47,20.90
2006,01,30,09,48,25.70
2006,01,30,09,49,25.70
2006,01,30,09,50,29.00
2006,01,30,09,51,29.00
2006,01,30,09,52,29.00
2006,01,30,09,53,25.70
2006,01,30,09,54,22.50
2006,01,30,09,55,25.70
2006,01,30,09,56,29.00
2006,01,30,09,57,25.70
2006,01,30,09,58,24.20
2006,01,30,09,59,25.70
2006,01,30,10,00,24.20
2006,01,30,10,01,24.20
2006,01,30,10,02,25.70
2006,01,30,10,03,29.00
2006,01,30,10,04,19.30
2006,01,30,10,05,19.30
2006,01,30,10,06,20.90
2006,01,30,10,07,19.30
2006,01,30,10,08,16.10
2006,01,30,10,09,14.50
2006,01,30,10,10,27.40
2006,01,30,10,11,30.60
2006,01,30,10,12,20.90
2006,01,30,10,13,30.60
2006,01,30,10,14,37.00
2006,01,30,10,15,27.40
2006,01,30,10,16,35.40
2006,01,30,10,17,33.80
2006,01,30,10,18,29.00
2006,01,30,10,19,27.40
2006,01,30,10,20,17.70
2006,01,30,10,21,30.60
2006,01,30,10,22,32.20
2006,01,30,10,23,27.40
2006,01,30,10,24,27.40
2006,01,30,10,25,20.90
2006,01,30,10,26,32.20
2006,01,30,10,27,30.60
2006,01,30,10,28,30.60
2006,01,30,10,29,37.00
2006,01,30,10,30,35.40
2006,01,30,10,31,43.50
2006,01,30,10,32,35.40
2006,01,30,10,33,29.00
2006,01,30,10,34,29.00
2006,01,30,10,35,25.70
2006,01,30,10,36,25.70
2006,01,30,10,37,37.00
2006,01,30,10,38,40.20
2006,01,30,10,39,38.60
2006,01,30,10,40,30.60
2006,01,30,10,41,35.40
2006,01,30,10,42,40.20
2006,01,30,10,43,41.80
2006,01,30,10,44,32.20
2006,01,30,10,45,30.60
2006,01,30,10,46,48.30
2006,01,30,10,47,40.20
2006,01,30,10,48,32.20
2006,01,30,10,49,32.20
2006,01,30,10,50,38.60
2006,01,30,10,51,33.80
2006,01,30,10,52,40.20
2006,01,30,10,53,37.00
2006,01,30,10,54,30.60
2006,01,30,10,55,35.40
2006,01,30,10,56,30.60
2006,01,30,10,57,32.20
2006,01,30,10,58,40.20
2006,01,30,10,59,35.40
2006,01,30,11,00,35.40
2006,01,30,11,01,32.20
2006,01,30,11,02,43.50
2006,01,30,11,03,37.00
2006,01,30,11,04,35.40
2006,01,30,11,05,33.80
2006,01,30,11,06,37.00
2006,01,30,11,07,37.00
2006,01,30,11,08,37.00
2006,01,30,11,09,37.00
2006,01,30,11,10,33.80
2006,01,30,11,11,29.00
2006,01,30,11,12,32.20
2006,01,30,11,13,25.70
2006,01,30,11,14,35.40
2006,01,30,11,15,32.20
2006,01,30,11,16,45.10
2006,01,30,11,17,46.70
2006,01,30,11,18,48.30
2006,01,30,11,19,41.80
2006,01,30,11,20,53.10
2006,01,30,11,21,43.50
2006,01,30,11,22,37.00
2006,01,30,11,23,40.20
2006,01,30,11,24,41.80
2006,01,30,11,25,33.80
2006,01,30,11,26,43.50
2006,01,30,11,27,46.70
2006,01,30,11,28,35.40
2006,01,30,11,29,43.50
2006,01,30,11,30,37.00
2006,01,30,11,31,41.80
2006,01,30,11,32,46.70
2006,01,30,11,33,38.60
2006,01,30,11,34,32.20
2006,01,30,11,35,54.70
2006,01,30,11,36,43.50
2006,01,30,11,37,46.70
2006,01,30,11,38,45.10
2006,01,30,11,39,46.70
2006,01,30,11,40,37.00
2006,01,30,11,41,45.10
2006,01,30,11,42,41.80
2006,01,30,11,43,51.50
2006,01,30,11,44,46.70
2006,01,30,11,45,49.90
2006,01,30,11,46,37.00
2006,01,30,11,47,40.20
2006,01,30,11,48,49.90
2006,01,30,11,49,54.70
2006,01,30,11,50,51.50
2006,01,30,11,51,48.30
2006,01,30,11,52,45.10
2006,01,30,11,53,41.80
2006,01,30,11,54,30.60
2006,01,30,11,55,49.90
2006,01,30,11,56,53.10
2006,01,30,11,57,37.00
2006,01,30,11,58,30.60
2006,01,30,11,59,35.40
2006,01,30,12,00,25.70
2006,01,30,12,01,29.00
2006,01,30,12,02,30.60
2006,01,30,12,03,32.20
2006,01,30,12,04,41.80
2006,01,30,12,05,33.80
2006,01,30,12,06,40.20
2006,01,30,12,07,37.00
2006,01,30,12,08,38.60
2006,01,30,12,09,40.20
2006,01,30,12,10,53.10
2006,01,30,12,11,48.30
2006,01,30,12,12,33.80
2006,01,30,12,13,51.50
2006,01,30,12,14,59.50
2006,01,30,12,15,53.10
2006,01,30,12,16,48.30
2006,01,30,12,17,54.70
2006,01,30,12,18,48.30
2006,01,30,12,19,45.10
2006,01,30,12,20,46.70
2006,01,30,12,21,46.70
2006,01,30,12,22,35.40
2006,01,30,12,23,37.00
2006,01,30,12,24,45.10
2006,01,30,12,25,45.10
2006,01,30,12,26,43.50
2006,01,30,12,27,38.60
2006,01,30,12,28,35.40
2006,01,30,12,29,40.20
2006,01,30,12,30,40.20
2006,01,30,12,31,40.20
2006,01,30,12,32,37.00
2006,01,30,12,33,41.80
2006,01,30,12,34,32.20
2006,01,30,12,35,32.20
2006,01,30,12,36,25.70
2006,01,30,12,37,27.40
2006,01,30,12,38,27.40
2006,01,30,12,39,30.60
2006,01,30,12,40,27.40
2006,01,30,12,41,30.60
2006,01,30,12,42,20.90
2006,01,30,12,43,17.70
2006,01,30,12,44,19.30
2006,01,30,12,45,22.50
2006,01,30,12,46,27.40
2006,01,30,12,47,20.90
2006,01,30,12,48,25.70
2006,01,30,12,49,40.20
2006,01,30,12,50,32.20
2006,01,30,12,51,29.00
2006,01,30,12,52,24.20
2006,01,30,12,53,29.00
2006,01,30,12,54,27.40
2006,01,30,12,55,22.50
2006,01,30,12,56,37.00
2006,01,30,12,57,24.20
2006,01,30,12,58,25.70
2006,01,30,12,59,29.00
2006,01,30,13,00,37.00
2006,01,30,13,01,29.00
2006,01,30,13,02,22.50
2006,01,30,13,03,27.40
2006,01,30,13,04,25.70
2006,01,30,13,05,25.70
2006,01,30,13,06,32.20
2006,01,30,13,07,32.20
2006,01,30,13,08,32.20
2006,01,30,13,09,29.00
2006,01,30,13,10,32.20
2006,01,30,13,11,35.40
2006,01,30,13,12,40.20
2006,01,30,13,13,29.00
2006,01,30,13,14,25.70
2006,01,30,13,15,33.80
2006,01,30,13,16,33.80
2006,01,30,13,17,38.60
2006,01,30,13,18,22.50
2006,01,30,13,19,38.60
2006,01,30,13,20,38.60
2006,01,30,13,21,22.50
2006,01,30,13,22,35.40
2006,01,30,13,23,35.40
2006,01,30,13,24,35.40
2006,01,30,13,25,40.20
2006,01,30,13,26,30.60
2006,01,30,13,27,30.60
2006,01,30,13,28,30.60
2006,01,30,13,29,27.40
2006,01,30,13,30,27.40
2006,01,30,13,31,29.00
2006,01,30,13,32,22.50
2006,01,30,13,33,25.70
2006,01,30,13,34,24.20
2006,01,30,13,35,25.70
2006,01,30,13,36,24.20
2006,01,30,13,37,22.50
2006,01,30,13,38,19.30
2006,01,30,13,39,22.50
2006,01,30,13,40,48.30
2006,01,30,13,41,40.20
2006,01,30,13,42,51.50
2006,01,30,13,43,41.80
2006,01,30,13,44,38.60
2006,01,30,13,45,35.40
2006,01,30,13,46,37.00
2006,01,30,13,47,37.00
2006,01,30,13,48,30.60
2006,01,30,13,49,27.40
2006,01,30,13,50,27.40
2006,01,30,13,51,27.40
2006,01,30,13,52,32.20
2006,01,30,13,53,27.40
2006,01,30,13,54,40.20
2006,01,30,13,55,33.80
2006,01,30,13,56,24.20
2006,01,30,13,57,25.70
2006,01,30,13,58,48.30
2006,01,30,13,59,33.80
2006,01,30,14,00,27.40
2006,01,30,14,01,40.20
2006,01,30,14,02,38.60
2006,01,30,14,03,46.70
2006,01,30,14,04,37.00
2006,01,30,14,05,46.70
2006,01,30,14,06,49.90
2006,01,30,14,07,43.50
2006,01,30,14,08,49.90
2006,01,30,14,09,45.10
2006,01,30,14,10,41.80
2006,01,30,14,11,33.80
2006,01,30,14,12,45.10
2006,01,30,14,13,45.10
2006,01,30,14,14,33.80
2006,01,30,14,15,41.80
2006,01,30,14,16,43.50
2006,01,30,14,17,46.70
2006,01,30,14,18,35.40
2006,01,30,14,19,41.80
2006,01,30,14,20,38.60
2006,01,30,14,21,37.00
2006,01,30,14,22,35.40
2006,01,30,14,23,30.60
2006,01,30,14,24,38.60
2006,01,30,14,25,35.40
2006,01,30,14,26,37.00
2006,01,30,14,27,32.20
2006,01,30,14,28,33.80
2006,01,30,14,29,24.20
2006,01,30,14,30,37.00
2006,01,30,14,31,40.20
2006,01,30,14,32,38.60
2006,01,30,14,33,37.00
2006,01,30,14,34,32.20
2006,01,30,14,35,24.20
2006,01,30,14,36,29.00
2006,01,30,14,37,35.40
2006,01,30,14,38,33.80
2006,01,30,14,39,30.60
2006,01,30,14,40,32.20
2006,01,30,14,41,48.30
2006,01,30,14,42,41.80
2006,01,30,14,43,51.50
2006,01,30,14,44,40.20
2006,01,30,14,45,43.50
2006,01,30,14,46,40.20
2006,01,30,14,47,40.20
2006,01,30,14,48,41.80
2006,01,30,14,49,38.60
2006,01,30,14,50,25.70
2006,01,30,14,51,35.40
2006,01,30,14,52,43.50
2006,01,30,14,53,49.90
2006,01,30,14,54,41.80
2006,01,30,14,55,38.60
2006,01,30,14,56,43.50
2006,01,30,14,57,45.10
2006,01,30,14,58,43.50
2006,01,30,14,59,45.10
2006,01,30,15,00,41.80
2006,01,30,15,01,38.60
2006,01,30,15,02,33.80
2006,01,30,15,03,40.20
2006,01,30,15,04,41.80
2006,01,30,15,05,37.00
2006,01,30,15,06,37.00
2006,01,30,15,07,35.40
2006,01,30,15,08,37.00
2006,01,30,15,09,43.50
2006,01,30,15,10,32.20
2006,01,30,15,11,30.60
2006,01,30,15,12,30.60
2006,01,30,15,13,38.60
2006,01,30,15,14,33.80
2006,01,30,15,15,33.80
2006,01,30,15,16,29.00
2006,01,30,15,17,30.60
2006,01,30,15,18,29.00
2006,01,30,15,19,30.60
2006,01,30,15,20,32.20
2006,01,30,15,21,37.00
2006,01,30,15,22,30.60
2006,01,30,15,23,32.20
2006,01,30,15,24,33.80
2006,01,30,15,25,35.40
2006,01,30,15,26,33.80
2006,01,30,15,27,32.20
2006,01,30,15,28,32.20
2006,01,30,15,29,43.50
2006,01,30,15,30,35.40
2006,01,30,15,31,29.00
2006,01,30,15,32,35.40
2006,01,30,15,33,32.20
2006,01,30,15,34,30.60
2006,01,30,15,35,37.00
2006,01,30,15,36,37.00
2006,01,30,15,37,32.20
2006,01,30,15,38,32.20
2006,01,30,15,39,33.80
2006,01,30,15,40,30.60
2006,01,30,15,41,37.00
2006,01,30,15,42,30.60
2006,01,30,15,43,27.40
2006,01,30,15,44,29.00
2006,01,30,15,45,25.70
2006,01,30,15,46,25.70
2006,01,30,15,47,27.40
2006,01,30,15,48,25.70
2006,01,30,15,49,25.70
2006,01,30,15,50,22.50
2006,01,30,15,51,29.00
2006,01,30,15,52,24.20
2006,01,30,15,53,32.20
2006,01,30,15,54,29.00
2006,01,30,15,55,20.90
2006,01,30,15,56,16.10
2006,01,30,15,57,20.90
2006,01,30,15,58,22.50
2006,01,30,15,59,12.90
2006,01,30,16,00,8.10
2006,01,30,16,01,12.90
2006,01,30,16,02,19.30
2006,01,30,16,03,20.90
2006,01,30,16,04,20.90
2006,01,30,16,05,22.50
2006,01,30,16,06,29.00
2006,01,30,16,07,25.70
2006,01,30,16,08,30.60
2006,01,30,16,09,27.40
2006,01,30,16,10,30.60
2006,01,30,16,11,40.20
2006,01,30,16,12,38.60
2006,01,30,16,13,30.60
2006,01,30,16,14,27.40
2006,01,30,16,15,27.40
2006,01,30,16,16,27.40
2006,01,30,16,17,24.20
2006,01,30,16,18,25.70
2006,01,30,16,19,43.50
2006,01,30,16,20,37.00
2006,01,30,16,21,37.00
2006,01,30,16,22,41.80
2006,01,30,16,23,41.80
2006,01,30,16,24,29.00
2006,01,30,16,25,29.00
2006,01,30,16,26,35.40
2006,01,30,16,27,25.70
2006,01,30,16,28,38.60
2006,01,30,16,29,35.40
2006,01,30,16,30,32.20
2006,01,30,16,31,43.50
2006,01,30,16,32,45.10
2006,01,30,16,33,45.10
2006,01,30,16,34,40.20
2006,01,30,16,35,40.20
2006,01,30,16,36,32.20
2006,01,30,16,37,38.60
2006,01,30,16,38,33.80
2006,01,30,16,39,38.60
2006,01,30,16,40,33.80
2006,01,30,16,41,30.60
2006,01,30,16,42,32.20
2006,01,30,16,43,27.40
2006,01,30,16,44,27.40
2006,01,30,16,45,27.40
2006,01,30,16,46,29.00
2006,01,30,16,47,38.60
2006,01,30,16,48,38.60
2006,01,30,16,49,37.00
2006,01,30,16,50,35.40
2006,01,30,16,51,22.50
2006,01,30,16,52,27.40
2006,01,30,16,53,33.80
2006,01,30,16,54,38.60
2006,01,30,16,55,33.80
2006,01,30,16,56,35.40
2006,01,30,16,57,40.20
2006,01,30,16,58,35.40
2006,01,30,16,59,29.00
2006,01,30,17,00,29.00
2006,01,30,17,01,33.80
2006,01,30,17,02,29.00
2006,01,30,17,03,25.70
2006,01,30,17,04,25.70
2006,01,30,17,05,30.60
2006,01,30,17,06,33.80
2006,01,30,17,07,30.60
2006,01,30,17,08,25.70
2006,01,30,17,09,19.30
2006,01,30,17,10,25.70
2006,01,30,17,11,29.00
2006,01,30,17,12,29.00
2006,01,30,17,13,27.40
2006,01,30,17,14,30.60
2006,01,30,17,15,30.60
2006,01,30,17,16,27.40
2006,01,30,17,17,20.90
2006,01,30,17,18,20.90
2006,01,30,17,19,20.90
2006,01,30,17,20,25.70